Regional Weather Roundup
Issued by NWS Jackson, KY

Home | Current Version | Previous Version | Graphics & Text | Print | Product List | Glossary On
Versions: 1 2 3 4 5 6 7 8 9 10 11 12 13 14 15 16 17 18 19 20 21 22 23 24 25 26 27
000
ASUS43 KJKL 251210
RWRJKL

EAST KENTUCKY HOURLY WEATHER ROUNDUP
NATIONAL WEATHER SERVICE JACKSON KY
800 AM EDT WED MAY 25 2016

NOTE: "FAIR" INDICATES FEW OR NO CLOUDS BELOW 12,000 FEET WITH
NO SIGNIFICANT WEATHER AND/OR OBSTRUCTIONS TO VISIBILITY.

* THESE REPORTS ARE NOT UNDER NWS QUALITY CONTROL AND MAY NOT
  REPORT WEATHER SUCH AS PRECIPITATION AND FOG.

KYZ079-080-083-085-087-088-110-112-115-119-120-251300
...EASTERN KENTUCKY...

CITY           SKY/WX    TMP DP  RH WIND       PRES   REMARKS
JACKSON        SUNNY     63  49  60 S3        30.19R
6HR MIN TEMP:  60; 6HR MAX TEMP:  66;

LONDON         SUNNY     61  51  70 SE3       30.19R
6HR MIN TEMP:  54; 6HR MAX TEMP:  61;

SOMERSET*      MOSUNNY   63  55  77 CALM      30.18S
MONTICELLO*    CLOUDY    64  57  78 NE6       30.19R
6HR MIN TEMP:  56; 6HR MAX TEMP:  64;

WILLIAMSBURG*  SUNNY     61  54  77 SE8       30.20R
MIDDLESBORO*   SUNNY     54  52  93 CALM      30.24R
6HR MIN TEMP:  50; 6HR MAX TEMP:  54;

HARLAN APT*      N/A     54  52  94 CALM      30.24R
HAZARD APT*    SUNNY     59  55  88 CALM      30.20R
BLACK MTN*       N/A     61  48  63 SW6         N/A
PIKE CO APT*     N/A     60  53  76 SE6       30.21S
MOREHEAD APT*  SUNNY     64  50  59 SE6       30.18R
ASHLAND*       PTSUNNY   57  55  94 CALM      30.16S
$$

KYZ035-036-041-042-044-050-067-078-099-251300
...CENTRAL KENTUCKY...

CITY           SKY/WX    TMP DP  RH WIND       PRES   REMARKS
MT STERLING*   MOSUNNY   66  52  59 S6        30.17R
FLEMING/MASON* PTSUNNY   65  54  65 S5        30.16S
DANVILLE*      PTSUNNY   63  54  72 SW5       30.18R
RICHMOND*      PTSUNNY   68  52  56 S7        30.15S
LEXINGTON      CLOUDY    65  51  60 S9        30.15R
6HR MIN TEMP:  62; 6HR MAX TEMP:  65;

FRANKFORT      CLOUDY    66  52  60 S6        30.13R
6HR MIN TEMP:  61; 6HR MAX TEMP:  66;

LOUISVILLE     LGT RAIN  68  59  73 SE7       30.10R
6HR MIN TEMP:  68; 6HR MAX TEMP:  70; 6HR PCP: TRACE;

LEBANON*       CLOUDY    66  55  68 SE9       30.14R
GLASGOW*       CLOUDY    67  56  68 CALM      30.14R
BOWLING GREEN  LGT RAIN  70  59  68 SW5       30.13R
6HR MIN TEMP:  65; 6HR MAX TEMP:  71; 6HR PCP: TRACE;

$$

KYZ091>093-OHZ055-061-077-WVZ005-015-034-035-042-251300
...SOUTHERN OHIO/WEST VIRGINIA...

CITY           SKY/WX    TMP DP  RH WIND       PRES   REMARKS
COVINGTON      PTSUNNY   68  54  60 S7        30.12R
COLUMBUS       CLOUDY    62  53  72 SE3       30.13F
DAYTON         PTSUNNY   67  50  54 S8        30.12S
WILMINGTON     SUNNY     67  53  61 S7        30.13S
HUNTINGTON       N/A     57  54  89 E5        30.17S
CHARLESTON       N/A     54  53  97 CALM      30.19S
PINEVILLE*       N/A     51  48  91 MISG      30.30S
BECKLEY          N/A     58  51  78 CALM      30.27R
BLUEFIELD        N/A     61  49  64 CALM      30.29R
LOGAN CO APT*    N/A     59  55  88 CALM      30.22S
$$

VAZ002-007-008-TNZ017-027-036-066-071-251300
...SOUTHWEST VIRGINIA/EAST TENNESSEE...

CITY           SKY/WX    TMP DP  RH WIND       PRES   REMARKS
WISE*            N/A     64  43  45 S6        30.28R
JONESVILLE*      N/A     57  52  82 CALM      30.26R
ABINGDON*        N/A     59  54  81 E6        30.27R
BRISTOL        MOSUNNY   56  52  86 CALM      30.26R
SEVIERVILLE*   SUNNY     61  52  72 CALM      30.21R
OAK RIDGE      MOSUNNY   61  57  87 CALM      30.23R
CROSSVILLE     MOSUNNY   70  54  56 CALM      30.23R
NASHVILLE      CLOUDY    68  59  73 S6        30.14R
$$

...KEY TO REMARKS...
VSB - VISIBILITY IN MILES
WCI - WIND CHILL INDEX
HX  - HEAT INDEX

$$




USA.gov is the U.S. government's official web portal to all federal, state and local government web resources and services.